Location: Hepcat Sky Observatory
(29.9800°N, 95.6500°W)
Time: 00:35:59
(UTC-05:00)

Cosmos 2366 rocket - Visible Passes

Search period start: 01 September 2016 00:00
Search period end: 11 September 2016 00:00
Orbit: 955 x 997 km, 82.9° (Epoch: 31 August)

Date Brightness Start Highest point End Pass type
(mag) Time Alt. Az. Time Alt. Az. Time Alt. Az.
01 Sep 5.7 05:28:06 10° NNE 05:33:40 34° E 05:39:10 10° SE visible
02 Sep 4.3 05:53:15 10° N 05:59:24 69° E 06:05:29 10° SSE visible
03 Sep 6.8 04:36:00 10° NE 04:39:12 14° ENE 04:42:23 10° ESE visible
03 Sep 4.0 06:18:55 10° NNW 06:24:58 61° W 06:30:59 10° S visible
04 Sep 5.8 04:59:53 10° NNE 05:05:10 29° ENE 05:10:24 10° SE visible
05 Sep 4.6 05:24:52 10° N 05:30:56 58° E 05:36:57 10° SSE visible
06 Sep 6.8 04:08:30 10° NE 04:10:39 12° ENE 04:12:47 10° E visible
06 Sep 3.9 05:50:25 10° N 05:56:33 72° W 06:02:37 10° S visible
07 Sep 6.0 04:31:43 10° NNE 04:36:38 25° ENE 04:41:32 10° SE visible
07 Sep 4.5 06:16:30 10° NNW 06:22:00 35° W 06:27:29 10° SSW visible
08 Sep 4.8 04:56:31 10° N 05:02:27 49° E 05:08:21 10° SSE visible
09 Sep 3.8 05:21:56 10° N 05:28:07 84° W 05:34:14 10° S visible
10 Sep 6.1 04:03:36 10° NNE 04:08:07 21° ENE 04:12:36 10° ESE visible
10 Sep 4.3 05:47:53 10° NNW 05:53:36 42° W 05:59:17 10° SSW visible
